Multibeam Report for MGL0804


Ship Name: Marcus G. Langseth
Chief Scientist: Holbrook, Steven
University of Wyoming
Source Organization: Marine Geoscience Data System (MGDS)
Start Date: 2008-02-17
End Date: 2008-03-08


View ISO Metadata

Visit the full NCEI Bathymetry Viewer


Multibeam Bathymetry

Cruise Details

Project: Seismic measurements of magma flux, arc compostion
Instrument: Simrad EM120

Data Quality

Number of Files: 237
Number of Records: 867143
BATHYMETRY DATA Quantity Percentage
Number of Beams 165616291 100%
Number of Good Beams 150735305 91.01%
Number of Zero Beams 14880986 8.99%
Number of Flagged Beams 0 0%
AMPLITUDE DATA Quantity Percentage
Number of Beams 165616291 100%
Number of Good Beams 150735305 91.01%
Number of Zero Beams 14880986 8.99%
Number of Flagged Beams 0 0%
SIDESCAN DATA Quantity Percentage
Number of Pixels 887911424 100%
Number of Good Pixels 428320576 48.24%
Number of Zero Pixels 0 0%
Number of Flagged Pixels 459590848 51.76%

Navigation Totals

Total Time: 404.4166 hours
Total Track Length: 4005.6332 km
Average Speed: 9.905 km/hr (5.3483 knots)

Cruise Bounds

Northern Extent: 13.124096
Southern Extent: 9.697804
Western Extent: -83.6326
Eastern Extent: -82.1884

Limits

Minimum Sonar Depth 5.83 Maximum Sonar Depth 14.35
Minimum Altitude 0 Maximum Altitude 2824.48
Minimum Depth 11.97 Maximum Depth 3521.04
Minimum Amplitude 0 Maximum Amplitude 38.5
Minimum Sidescan 0 Maximum Sidescan 62.5

File Information

Full Resolution Bathymetry as collected (raw): 236

Files File Size Description
0001_20080217_043321_Marcus_G_Langseth.all.mb56.gz 8.29MB Simrad multibeam vendor format
0002_20080217_054551_Marcus_G_Langseth.all.mb56.gz 12.10MB Simrad multibeam vendor format
0003_20080217_071821_Marcus_G_Langseth.all.mb56.gz 12.26MB Simrad multibeam vendor format
0004_20080217_084831_Marcus_G_Langseth.all.mb56.gz 10.67MB Simrad multibeam vendor format
0005_20080217_100650_Marcus_G_Langseth.all.mb56.gz 10.75MB Simrad multibeam vendor format
0006_20080217_113006_Marcus_G_Langseth.all.mb56.gz 10.83MB Simrad multibeam vendor format
0007_20080217_125316_Marcus_G_Langseth.all.mb56.gz 10.19MB Simrad multibeam vendor format
0008_20080217_141122_Marcus_G_Langseth.all.mb56.gz 9.66MB Simrad multibeam vendor format
0010_20080217_153443_Marcus_G_Langseth.all.mb56.gz 9.10MB Simrad multibeam vendor format
0011_20080217_164922_Marcus_G_Langseth.all.mb56.gz 10.41MB Simrad multibeam vendor format
0013_20080217_180317_Marcus_G_Langseth.all.mb56.gz 24.15MB Simrad multibeam vendor format
0014_20080217_193107_Marcus_G_Langseth.all.mb56.gz 37.17MB Simrad multibeam vendor format
0015_20080217_204908_Marcus_G_Langseth.all.mb56.gz 58.07MB Simrad multibeam vendor format
0016_20080217_224908_Marcus_G_Langseth.all.mb56.gz 21.56MB Simrad multibeam vendor format
0017_20080217_234532_Marcus_G_Langseth.all.mb56.gz 19.87MB Simrad multibeam vendor format
0018_20080218_013310_Marcus_G_Langseth.all.mb56.gz 6.87MB Simrad multibeam vendor format
0019_20080218_023813_Marcus_G_Langseth.all.mb56.gz 6.53MB Simrad multibeam vendor format
0020_20080218_034024_Marcus_G_Langseth.all.mb56.gz 9.77MB Simrad multibeam vendor format
0021_20080218_051406_Marcus_G_Langseth.all.mb56.gz 6.28MB Simrad multibeam vendor format
0022_20080218_062026_Marcus_G_Langseth.all.mb56.gz 13.02MB Simrad multibeam vendor format
0023_20080218_082026_Marcus_G_Langseth.all.mb56.gz 6.99MB Simrad multibeam vendor format
0024_20080218_140353_Marcus_G_Langseth.all.mb56.gz 0.64MB Simrad multibeam vendor format
0025_20080218_141419_Marcus_G_Langseth.all.mb56.gz 6.37MB Simrad multibeam vendor format
0026_20080218_151717_Marcus_G_Langseth.all.mb56.gz 5.96MB Simrad multibeam vendor format
0027_20080218_161758_Marcus_G_Langseth.all.mb56.gz 6.41MB Simrad multibeam vendor format
0029_20080218_172505_Marcus_G_Langseth.all.mb56.gz 6.48MB Simrad multibeam vendor format
0030_20080218_183206_Marcus_G_Langseth.all.mb56.gz 12.28MB Simrad multibeam vendor format
0031_20080218_203206_Marcus_G_Langseth.all.mb56.gz 279.1KB Simrad multibeam vendor format
0032_20080218_205135_Marcus_G_Langseth.all.mb56.gz 5.76MB Simrad multibeam vendor format
0033_20080218_215644_Marcus_G_Langseth.all.mb56.gz 10.00MB Simrad multibeam vendor format
0034_20080219_011912_Marcus_G_Langseth.all.mb56.gz 9.11MB Simrad multibeam vendor format
0035_20080219_043352_Marcus_G_Langseth.all.mb56.gz 6.47MB Simrad multibeam vendor format
0036_20080219_053819_Marcus_G_Langseth.all.mb56.gz 6.32MB Simrad multibeam vendor format
0037_20080219_063943_Marcus_G_Langseth.all.mb56.gz 16.00MB Simrad multibeam vendor format
0038_20080219_074538_Marcus_G_Langseth.all.mb56.gz 28.23MB Simrad multibeam vendor format
0039_20080219_084831_Marcus_G_Langseth.all.mb56.gz 60.49MB Simrad multibeam vendor format
0040_20080219_103400_Marcus_G_Langseth.all.mb56.gz 41.30MB Simrad multibeam vendor format
0041_20080219_113558_Marcus_G_Langseth.all.mb56.gz 79.75MB Simrad multibeam vendor format
0042_20080219_133557_Marcus_G_Langseth.all.mb56.gz 27.67MB Simrad multibeam vendor format
0043_20080219_142553_Marcus_G_Langseth.all.mb56.gz 35.14MB Simrad multibeam vendor format
0044_20080219_152916_Marcus_G_Langseth.all.mb56.gz 35.31MB Simrad multibeam vendor format
0045_20080219_163149_Marcus_G_Langseth.all.mb56.gz 36.88MB Simrad multibeam vendor format
0046_20080219_173710_Marcus_G_Langseth.all.mb56.gz 39.90MB Simrad multibeam vendor format
0047_20080219_184315_Marcus_G_Langseth.all.mb56.gz 42.95MB Simrad multibeam vendor format
0048_20080219_195532_Marcus_G_Langseth.all.mb56.gz 55.72MB Simrad multibeam vendor format
0049_20080219_213746_Marcus_G_Langseth.all.mb56.gz 70.83MB Simrad multibeam vendor format
0050_20080219_233746_Marcus_G_Langseth.all.mb56.gz 51.36MB Simrad multibeam vendor format
0051_20080220_011333_Marcus_G_Langseth.all.mb56.gz 31.23MB Simrad multibeam vendor format
0052_20080220_022106_Marcus_G_Langseth.all.mb56.gz 55.47MB Simrad multibeam vendor format
0053_20080220_042106_Marcus_G_Langseth.all.mb56.gz 12.80MB Simrad multibeam vendor format
0054_20080220_051131_Marcus_G_Langseth.all.mb56.gz 35.43MB Simrad multibeam vendor format
0055_20080220_061857_Marcus_G_Langseth.all.mb56.gz 35.67MB Simrad multibeam vendor format
0056_20080220_072914_Marcus_G_Langseth.all.mb56.gz 68.87MB Simrad multibeam vendor format
0057_20080220_092913_Marcus_G_Langseth.all.mb56.gz 57.80MB Simrad multibeam vendor format
0058_20080220_112913_Marcus_G_Langseth.all.mb56.gz 72.06MB Simrad multibeam vendor format
0059_20080220_132913_Marcus_G_Langseth.all.mb56.gz 74.20MB Simrad multibeam vendor format
0060_20080220_152913_Marcus_G_Langseth.all.mb56.gz 70.27MB Simrad multibeam vendor format
0061_20080220_172913_Marcus_G_Langseth.all.mb56.gz 294.2KB Simrad multibeam vendor format
0063_20080220_173109_Marcus_G_Langseth.all.mb56.gz 46.99MB Simrad multibeam vendor format
0064_20080220_184929_Marcus_G_Langseth.all.mb56.gz 37.22MB Simrad multibeam vendor format
0065_20080220_195656_Marcus_G_Langseth.all.mb56.gz 58.34MB Simrad multibeam vendor format
0066_20080220_215656_Marcus_G_Langseth.all.mb56.gz 17.71MB Simrad multibeam vendor format
0067_20080220_235656_Marcus_G_Langseth.all.mb56.gz 20.67MB Simrad multibeam vendor format
0068_20080221_015656_Marcus_G_Langseth.all.mb56.gz 16.60MB Simrad multibeam vendor format
0069_20080221_035656_Marcus_G_Langseth.all.mb56.gz 14.73MB Simrad multibeam vendor format
0070_20080221_055655_Marcus_G_Langseth.all.mb56.gz 13.79MB Simrad multibeam vendor format
0071_20080221_075655_Marcus_G_Langseth.all.mb56.gz 13.79MB Simrad multibeam vendor format
0072_20080221_095655_Marcus_G_Langseth.all.mb56.gz 13.72MB Simrad multibeam vendor format
0073_20080221_115655_Marcus_G_Langseth.all.mb56.gz 13.62MB Simrad multibeam vendor format
0074_20080221_135655_Marcus_G_Langseth.all.mb56.gz 14.00MB Simrad multibeam vendor format
0075_20080221_155655_Marcus_G_Langseth.all.mb56.gz 14.55MB Simrad multibeam vendor format
0076_20080221_175655_Marcus_G_Langseth.all.mb56.gz 13.96MB Simrad multibeam vendor format
0077_20080221_195654_Marcus_G_Langseth.all.mb56.gz 14.69MB Simrad multibeam vendor format
0078_20080221_215654_Marcus_G_Langseth.all.mb56.gz 2.85MB Simrad multibeam vendor format
0079_20080221_221924_Marcus_G_Langseth.all.mb56.gz 16.22MB Simrad multibeam vendor format
0080_20080222_001924_Marcus_G_Langseth.all.mb56.gz 17.12MB Simrad multibeam vendor format
0081_20080222_021924_Marcus_G_Langseth.all.mb56.gz 30.44MB Simrad multibeam vendor format
0082_20080222_041923_Marcus_G_Langseth.all.mb56.gz 14.06MB Simrad multibeam vendor format
0083_20080222_061923_Marcus_G_Langseth.all.mb56.gz 14.21MB Simrad multibeam vendor format
0084_20080222_081923_Marcus_G_Langseth.all.mb56.gz 13.60MB Simrad multibeam vendor format
0085_20080222_101923_Marcus_G_Langseth.all.mb56.gz 12.46MB Simrad multibeam vendor format
0086_20080222_121923_Marcus_G_Langseth.all.mb56.gz 12.08MB Simrad multibeam vendor format
0087_20080222_141923_Marcus_G_Langseth.all.mb56.gz 12.08MB Simrad multibeam vendor format
0088_20080222_161923_Marcus_G_Langseth.all.mb56.gz 11.80MB Simrad multibeam vendor format
0089_20080222_181922_Marcus_G_Langseth.all.mb56.gz 12.03MB Simrad multibeam vendor format
0090_20080222_201922_Marcus_G_Langseth.all.mb56.gz 11.97MB Simrad multibeam vendor format
0091_20080222_221922_Marcus_G_Langseth.all.mb56.gz 11.98MB Simrad multibeam vendor format
0092_20080223_001922_Marcus_G_Langseth.all.mb56.gz 12.30MB Simrad multibeam vendor format
0093_20080223_021922_Marcus_G_Langseth.all.mb56.gz 12.61MB Simrad multibeam vendor format
0094_20080223_041922_Marcus_G_Langseth.all.mb56.gz 12.20MB Simrad multibeam vendor format
0095_20080223_061922_Marcus_G_Langseth.all.mb56.gz 12.03MB Simrad multibeam vendor format
0096_20080223_081921_Marcus_G_Langseth.all.mb56.gz 11.92MB Simrad multibeam vendor format
0097_20080223_101921_Marcus_G_Langseth.all.mb56.gz 11.90MB Simrad multibeam vendor format
0098_20080223_121921_Marcus_G_Langseth.all.mb56.gz 12.07MB Simrad multibeam vendor format
0099_20080223_141921_Marcus_G_Langseth.all.mb56.gz 12.39MB Simrad multibeam vendor format
0100_20080223_161921_Marcus_G_Langseth.all.mb56.gz 13.17MB Simrad multibeam vendor format
0101_20080223_181921_Marcus_G_Langseth.all.mb56.gz 13.98MB Simrad multibeam vendor format
0102_20080223_201921_Marcus_G_Langseth.all.mb56.gz 14.00MB Simrad multibeam vendor format
0103_20080223_221921_Marcus_G_Langseth.all.mb56.gz 25.07MB Simrad multibeam vendor format
0104_20080224_001920_Marcus_G_Langseth.all.mb56.gz 30.34MB Simrad multibeam vendor format
0105_20080224_021920_Marcus_G_Langseth.all.mb56.gz 17.67MB Simrad multibeam vendor format
0106_20080224_041920_Marcus_G_Langseth.all.mb56.gz 26.45MB Simrad multibeam vendor format
0107_20080224_061920_Marcus_G_Langseth.all.mb56.gz 51.35MB Simrad multibeam vendor format
0108_20080224_081920_Marcus_G_Langseth.all.mb56.gz 21.18MB Simrad multibeam vendor format
0109_20080224_101920_Marcus_G_Langseth.all.mb56.gz 17.87MB Simrad multibeam vendor format
0110_20080224_121919_Marcus_G_Langseth.all.mb56.gz 16.39MB Simrad multibeam vendor format
0111_20080224_141919_Marcus_G_Langseth.all.mb56.gz 16.62MB Simrad multibeam vendor format
0112_20080224_161919_Marcus_G_Langseth.all.mb56.gz 16.56MB Simrad multibeam vendor format
0113_20080224_181919_Marcus_G_Langseth.all.mb56.gz 16.67MB Simrad multibeam vendor format
0114_20080224_201919_Marcus_G_Langseth.all.mb56.gz 19.46MB Simrad multibeam vendor format
0115_20080224_221919_Marcus_G_Langseth.all.mb56.gz 18.79MB Simrad multibeam vendor format
0116_20080225_001919_Marcus_G_Langseth.all.mb56.gz 15.16MB Simrad multibeam vendor format
0117_20080225_021918_Marcus_G_Langseth.all.mb56.gz 16.17MB Simrad multibeam vendor format
0118_20080225_041918_Marcus_G_Langseth.all.mb56.gz 16.58MB Simrad multibeam vendor format
0119_20080225_061918_Marcus_G_Langseth.all.mb56.gz 15.77MB Simrad multibeam vendor format
0120_20080225_081918_Marcus_G_Langseth.all.mb56.gz 19.33MB Simrad multibeam vendor format
0121_20080225_101918_Marcus_G_Langseth.all.mb56.gz 18.34MB Simrad multibeam vendor format
0122_20080225_121918_Marcus_G_Langseth.all.mb56.gz 16.61MB Simrad multibeam vendor format
0123_20080225_141918_Marcus_G_Langseth.all.mb56.gz 16.39MB Simrad multibeam vendor format
0124_20080225_161917_Marcus_G_Langseth.all.mb56.gz 16.53MB Simrad multibeam vendor format
0125_20080225_181917_Marcus_G_Langseth.all.mb56.gz 16.21MB Simrad multibeam vendor format
0126_20080225_201917_Marcus_G_Langseth.all.mb56.gz 16.75MB Simrad multibeam vendor format
0127_20080225_221917_Marcus_G_Langseth.all.mb56.gz 17.55MB Simrad multibeam vendor format
0128_20080226_001917_Marcus_G_Langseth.all.mb56.gz 25.40MB Simrad multibeam vendor format
0129_20080226_021917_Marcus_G_Langseth.all.mb56.gz 53.62MB Simrad multibeam vendor format
0130_20080226_041917_Marcus_G_Langseth.all.mb56.gz 29.58MB Simrad multibeam vendor format
0131_20080226_061916_Marcus_G_Langseth.all.mb56.gz 14.69MB Simrad multibeam vendor format
0132_20080226_081916_Marcus_G_Langseth.all.mb56.gz 13.84MB Simrad multibeam vendor format
0133_20080226_101916_Marcus_G_Langseth.all.mb56.gz 13.60MB Simrad multibeam vendor format
0134_20080226_121916_Marcus_G_Langseth.all.mb56.gz 13.53MB Simrad multibeam vendor format
0135_20080226_141916_Marcus_G_Langseth.all.mb56.gz 13.68MB Simrad multibeam vendor format
0136_20080226_161916_Marcus_G_Langseth.all.mb56.gz 13.71MB Simrad multibeam vendor format
0137_20080226_181916_Marcus_G_Langseth.all.mb56.gz 14.49MB Simrad multibeam vendor format
0138_20080226_201915_Marcus_G_Langseth.all.mb56.gz 17.61MB Simrad multibeam vendor format
0139_20080226_221915_Marcus_G_Langseth.all.mb56.gz 19.24MB Simrad multibeam vendor format
0140_20080227_001915_Marcus_G_Langseth.all.mb56.gz 27.30MB Simrad multibeam vendor format
0141_20080227_021915_Marcus_G_Langseth.all.mb56.gz 24.42MB Simrad multibeam vendor format
0142_20080227_041915_Marcus_G_Langseth.all.mb56.gz 14.07MB Simrad multibeam vendor format
0143_20080227_061915_Marcus_G_Langseth.all.mb56.gz 13.77MB Simrad multibeam vendor format
0144_20080227_081915_Marcus_G_Langseth.all.mb56.gz 13.18MB Simrad multibeam vendor format
0145_20080227_101914_Marcus_G_Langseth.all.mb56.gz 12.66MB Simrad multibeam vendor format
0146_20080227_121914_Marcus_G_Langseth.all.mb56.gz 12.23MB Simrad multibeam vendor format
0147_20080227_141914_Marcus_G_Langseth.all.mb56.gz 12.13MB Simrad multibeam vendor format
0148_20080227_161914_Marcus_G_Langseth.all.mb56.gz 11.97MB Simrad multibeam vendor format
0149_20080227_181914_Marcus_G_Langseth.all.mb56.gz 12.51MB Simrad multibeam vendor format
0150_20080227_201914_Marcus_G_Langseth.all.mb56.gz 12.40MB Simrad multibeam vendor format
0151_20080227_221914_Marcus_G_Langseth.all.mb56.gz 12.29MB Simrad multibeam vendor format
0152_20080228_001914_Marcus_G_Langseth.all.mb56.gz 11.93MB Simrad multibeam vendor format
0153_20080228_021913_Marcus_G_Langseth.all.mb56.gz 11.91MB Simrad multibeam vendor format
0154_20080228_041913_Marcus_G_Langseth.all.mb56.gz 12.35MB Simrad multibeam vendor format
0155_20080228_061913_Marcus_G_Langseth.all.mb56.gz 14.69MB Simrad multibeam vendor format
0156_20080228_081913_Marcus_G_Langseth.all.mb56.gz 13.21MB Simrad multibeam vendor format
0157_20080228_101913_Marcus_G_Langseth.all.mb56.gz 1.15MB Simrad multibeam vendor format
0158_20080228_103823_Marcus_G_Langseth.all.mb56.gz 4.96MB Simrad multibeam vendor format
0158_20080228_112316_Marcus_G_Langseth.all.mb56.gz 8.14MB Simrad multibeam vendor format
0159_20080228_130612_Marcus_G_Langseth.all.mb56.gz 10.57MB Simrad multibeam vendor format
0160_20080228_150612_Marcus_G_Langseth.all.mb56.gz 11.37MB Simrad multibeam vendor format
0161_20080228_170612_Marcus_G_Langseth.all.mb56.gz 11.45MB Simrad multibeam vendor format
0162_20080228_190612_Marcus_G_Langseth.all.mb56.gz 11.73MB Simrad multibeam vendor format
0163_20080228_210611_Marcus_G_Langseth.all.mb56.gz 11.92MB Simrad multibeam vendor format
0164_20080228_230611_Marcus_G_Langseth.all.mb56.gz 12.38MB Simrad multibeam vendor format
0165_20080229_010611_Marcus_G_Langseth.all.mb56.gz 12.30MB Simrad multibeam vendor format
0166_20080229_030611_Marcus_G_Langseth.all.mb56.gz 12.29MB Simrad multibeam vendor format
0167_20080229_050611_Marcus_G_Langseth.all.mb56.gz 12.17MB Simrad multibeam vendor format
0168_20080229_070611_Marcus_G_Langseth.all.mb56.gz 12.87MB Simrad multibeam vendor format
0169_20080229_090611_Marcus_G_Langseth.all.mb56.gz 15.16MB Simrad multibeam vendor format
0170_20080229_110610_Marcus_G_Langseth.all.mb56.gz 15.28MB Simrad multibeam vendor format
0171_20080229_130610_Marcus_G_Langseth.all.mb56.gz 14.63MB Simrad multibeam vendor format
0172_20080229_150610_Marcus_G_Langseth.all.mb56.gz 13.70MB Simrad multibeam vendor format
0173_20080229_170610_Marcus_G_Langseth.all.mb56.gz 13.39MB Simrad multibeam vendor format
0174_20080229_190610_Marcus_G_Langseth.all.mb56.gz 13.24MB Simrad multibeam vendor format
0175_20080229_210610_Marcus_G_Langseth.all.mb56.gz 13.39MB Simrad multibeam vendor format
0176_20080229_230610_Marcus_G_Langseth.all.mb56.gz 13.63MB Simrad multibeam vendor format
0177_20080301_010609_Marcus_G_Langseth.all.mb56.gz 17.33MB Simrad multibeam vendor format
0178_20080301_030609_Marcus_G_Langseth.all.mb56.gz 14.90MB Simrad multibeam vendor format
0179_20080301_050609_Marcus_G_Langseth.all.mb56.gz 13.55MB Simrad multibeam vendor format
0180_20080301_070609_Marcus_G_Langseth.all.mb56.gz 12.55MB Simrad multibeam vendor format
0181_20080301_090609_Marcus_G_Langseth.all.mb56.gz 10.67MB Simrad multibeam vendor format
0182_20080301_110609_Marcus_G_Langseth.all.mb56.gz 10.62MB Simrad multibeam vendor format
0183_20080301_130609_Marcus_G_Langseth.all.mb56.gz 11.17MB Simrad multibeam vendor format
0184_20080301_150608_Marcus_G_Langseth.all.mb56.gz 12.36MB Simrad multibeam vendor format
0185_20080301_170608_Marcus_G_Langseth.all.mb56.gz 12.40MB Simrad multibeam vendor format
0186_20080301_190608_Marcus_G_Langseth.all.mb56.gz 11.78MB Simrad multibeam vendor format
0187_20080301_210608_Marcus_G_Langseth.all.mb56.gz 10.86MB Simrad multibeam vendor format
0188_20080301_230608_Marcus_G_Langseth.all.mb56.gz 11.44MB Simrad multibeam vendor format
0189_20080302_010608_Marcus_G_Langseth.all.mb56.gz 13.83MB Simrad multibeam vendor format
0190_20080302_030608_Marcus_G_Langseth.all.mb56.gz 12.00MB Simrad multibeam vendor format
0191_20080302_050607_Marcus_G_Langseth.all.mb56.gz 11.03MB Simrad multibeam vendor format
0192_20080302_070607_Marcus_G_Langseth.all.mb56.gz 11.42MB Simrad multibeam vendor format
0193_20080302_090607_Marcus_G_Langseth.all.mb56.gz 11.67MB Simrad multibeam vendor format
0194_20080302_110607_Marcus_G_Langseth.all.mb56.gz 11.40MB Simrad multibeam vendor format
0195_20080302_130607_Marcus_G_Langseth.all.mb56.gz 11.62MB Simrad multibeam vendor format
0196_20080302_150607_Marcus_G_Langseth.all.mb56.gz 11.60MB Simrad multibeam vendor format
0197_20080302_170607_Marcus_G_Langseth.all.mb56.gz 11.52MB Simrad multibeam vendor format
0198_20080302_190607_Marcus_G_Langseth.all.mb56.gz 9.89MB Simrad multibeam vendor format
0199_20080303_053432_Marcus_G_Langseth.all.mb56.gz 289.9KB Simrad multibeam vendor format
0200_20080303_053752_Marcus_G_Langseth.all.mb56.gz 12.20MB Simrad multibeam vendor format
0201_20080303_073756_Marcus_G_Langseth.all.mb56.gz 3.28MB Simrad multibeam vendor format
0203_20080304_074511_Marcus_G_Langseth.all.mb56.gz 13.26MB Simrad multibeam vendor format
0204_20080304_130617_Marcus_G_Langseth.all.mb56.gz 24.95MB Simrad multibeam vendor format
0205_20080304_150617_Marcus_G_Langseth.all.mb56.gz 13.03MB Simrad multibeam vendor format
0206_20080304_170617_Marcus_G_Langseth.all.mb56.gz 13.34MB Simrad multibeam vendor format
0207_20080304_190617_Marcus_G_Langseth.all.mb56.gz 12.70MB Simrad multibeam vendor format
0208_20080304_210616_Marcus_G_Langseth.all.mb56.gz 12.69MB Simrad multibeam vendor format
0209_20080304_230616_Marcus_G_Langseth.all.mb56.gz 12.59MB Simrad multibeam vendor format
0210_20080305_010616_Marcus_G_Langseth.all.mb56.gz 33.09MB Simrad multibeam vendor format
0211_20080305_030616_Marcus_G_Langseth.all.mb56.gz 58.67MB Simrad multibeam vendor format
0212_20080305_050616_Marcus_G_Langseth.all.mb56.gz 73.20MB Simrad multibeam vendor format
0213_20080305_070616_Marcus_G_Langseth.all.mb56.gz 64.81MB Simrad multibeam vendor format
0214_20080305_102300_Marcus_G_Langseth.all.mb56.gz 60.02MB Simrad multibeam vendor format
0215_20080305_122300_Marcus_G_Langseth.all.mb56.gz 76.61MB Simrad multibeam vendor format
0216_20080305_142300_Marcus_G_Langseth.all.mb56.gz 80.52MB Simrad multibeam vendor format
0217_20080305_162300_Marcus_G_Langseth.all.mb56.gz 77.91MB Simrad multibeam vendor format
0218_20080305_182300_Marcus_G_Langseth.all.mb56.gz 79.86MB Simrad multibeam vendor format
0219_20080305_202300_Marcus_G_Langseth.all.mb56.gz 81.43MB Simrad multibeam vendor format
0220_20080305_222300_Marcus_G_Langseth.all.mb56.gz 85.53MB Simrad multibeam vendor format
0221_20080306_002300_Marcus_G_Langseth.all.mb56.gz 86.46MB Simrad multibeam vendor format
0222_20080306_022259_Marcus_G_Langseth.all.mb56.gz 84.58MB Simrad multibeam vendor format
0223_20080306_042259_Marcus_G_Langseth.all.mb56.gz 79.56MB Simrad multibeam vendor format
0224_20080306_062259_Marcus_G_Langseth.all.mb56.gz 74.84MB Simrad multibeam vendor format
0225_20080306_082259_Marcus_G_Langseth.all.mb56.gz 72.73MB Simrad multibeam vendor format
0226_20080306_102259_Marcus_G_Langseth.all.mb56.gz 74.36MB Simrad multibeam vendor format
0227_20080306_122259_Marcus_G_Langseth.all.mb56.gz 62.89MB Simrad multibeam vendor format
0229_20080306_213636_Marcus_G_Langseth.all.mb56.gz 29.16MB Simrad multibeam vendor format
0230_20080307_070208_Marcus_G_Langseth.all.mb56.gz 32.62MB Simrad multibeam vendor format
0231_20080307_085837_Marcus_G_Langseth.all.mb56.gz 16.15MB Simrad multibeam vendor format
0232_20080307_095202_Marcus_G_Langseth.all.mb56.gz 67.24MB Simrad multibeam vendor format
0233_20080307_115202_Marcus_G_Langseth.all.mb56.gz 33.19MB Simrad multibeam vendor format
0234_20080307_173239_Marcus_G_Langseth.all.mb56.gz 28.21MB Simrad multibeam vendor format
0236_20080308_031500_Marcus_G_Langseth.all.mb56.gz 1.40MB Simrad multibeam vendor format
0237_20080308_045018_Marcus_G_Langseth.all.mb56.gz 2.36MB Simrad multibeam vendor format
0238_20080308_065002_Marcus_G_Langseth.all.mb56.gz 2.25MB Simrad multibeam vendor format
0239_20080308_082452_Marcus_G_Langseth.all.mb56.gz 3.05MB Simrad multibeam vendor format
0240_20080308_114125_Marcus_G_Langseth.all.mb56.gz 7.96MB Simrad multibeam vendor format
0241_20080308_134125_Marcus_G_Langseth.all.mb56.gz 8.17MB Simrad multibeam vendor format
0242_20080308_154125_Marcus_G_Langseth.all.mb56.gz 8.56MB Simrad multibeam vendor format

Metadata Files: 1

Files File Size Description
MGL0804_Multibeam.xml NGDC created ISO metadata